STARLINK-35100, 65542

Orbit data source: Space-Track

STARLINK-35100, 65542 is a payload satellite owned by SpaceX/Seattle (US) in SSO that was launched on Sat, 06 Sep 2025 UTC via an FALCON 9 launch vehicle from the Air Force Eastern Test Range (AFETR). Payload-class satellites include a variety of spacecraft equipped with specific instruments for various scientific and technological missions. These include communications satellites like Starlink; space stations such as the ISS; scientific satellites like the Hubble; Earth observation satellites from companies like Planet Labs, Umbra, and HawkEye 360; GPS; miniature CubeSats for education and research; and military/defense satellites.

Loading next visibility...
Identifier
65542, 2025-200Y
Orbit
SSO
Country
Flag of USUS
Related business
Manufacturer
SpaceX/Seattle
Mission
Operational Commercial Communications
Bus & Motor
STARLINK V2MO, Unknown motor
Mass
575 kg wet, ~530 kg dry
Launch date (UTC)
2025-09-06 (9 months ago)
Launch vehicle
FALCON 9
Launch site
Air Force Eastern Test Range (AFETR)
Object type
Payload
Rocket body
Debris
Shape & HBR
Box + 2 Pan, 17.7 m
Radar Cross Section
36.964 m², Large (>1 m²)

Expand to show TLE details & history
Last TLE update: 1 day ago

TLE from 1 day ago
0 STARLINK-35100
1 65542U 25200Y   26170.74868262  .00005479  00000-0  38329-3 0  9993
2 65542  97.3383 239.2663 0001212 131.4896 228.6435 15.05661335 44481
Epoch: 2026-06-19T17:58Z
TLE epoch observation values (Epoch: 2026-06-19T17:58:06.178Z)
Latitude
-0.00009°
Longitude
61.76737°
Altitude
553.104 km
Speed
7.585 km/s
True Right ascension
15h 57m 03s
True Declination
0° 00' 00"
Sunlit
Object was in full shadow at epoch
Visualization orbit readout
Latitude
Unknown
Longitude
Unknown
Altitude
Unknown
Speed
Unknown
Apparent Right ascension
Unknown
Apparent Declination
Unknown
Sunlit
N/A
Visualization observer readout
Local Sidereal Time
07:15:19
Azimuth
Unknown
Elevation
Unknown
Doppler factor
Unknown
Orbital elements
Apogee altitude
547.298 km
Perigee altitude
545.619 km
Semi-major axis
6,924.596 km
Eccentricity
0.00012
Inclination
97.3383°
RAAN
239.2663°
Arg. of periapsis
131.4896°
True anomaly
228.63308°
Mean anomaly
228.6435°
Eccentric anomaly
228.63829°
Mean motion
3.76662 °/min
Orbital period
95.58 mins
BSTAR
0.00038329
Loading maneuver chart data...
Computing Atmospheric mass density...
Loading historical data...
Loading historical data...
Loading historical data...
Loading historical data...
Loading historical data...
Loading historical data...
Loading historical data...

Documentation

Showing up to 5 results
|